Location: Banksville Park
(38.5557°N, 75.1182°W)
Time: 03:31:25
(UTC+00:00)

Meteor 1-10 Rocket - Pass Details

Date: 19 September 2020
Orbit: 836 x 910 km, 81.3° (Epoch: 18 October)

Event Time Altitude Azimuth Distance (km) Brightness Sun altitude
Exits shadow 09:25:24 - 204° (SSW) 2,568 6.4 -16.4°
Reaches altitude 10° 09:25:34 10° 204° (SSW) 2,506 6.3 -16.3°
Maximum altitude 09:31:09 56° 282° (WNW) 1,043 4.4 -15.3°
Drops below altitude 10° 09:36:54 10° 0° (N) 2,571 6.9 -14.2°
Sets 09:39:27 0° 5° (N) 3,524 7.7 -13.7°
